[[{"header":{"parameterUnit":"m.s-1","parameterCategory":1,"la1":30.2991,"la2":30.254,"lo1":-89.0895,"lo2":-89.0444,"dy":0.0017,"dx":0.0017,"nx":28,"ny":28,"refTime":"2024-04-18T09:00:00:Z","depth":0,"parameterNumber":2,"parameterNumberName":"U-component_of_WINDS"},"data":[0,0,0,0,0,0,0,0,0,0,0,0,0,0,0,0,0,0,0,0,0,0,0,0,0,0,0,0,0,0,0,0,0,0,0,0,0,0,0,0,0,0,0,0,0,0,0,0,0,0,0,0,0,0,0,0,0,0,0.3649,0.3648,0,0.3611,0.3611,0.361,0.3566,0.3566,0.3565,0.3564,0.3527,0.3526,0.3526,0,0,0,0,0,0,0,0,0,0,0,0,0,0.3684,0.3684,0.3649,0.3648,0.3648,0.3611,0.3611,0.361,0.3566,0.3566,0.3565,0.3564,0.3527,0.3526,0.3526,0,0,0,0,0,0,0,0,0,0,0,0,0,0.366,0.3683,0.3649,0.3622,0.3619,0.3611,0.3611,0.361,0.3567,0.3566,0.3565,0.3564,0.3527,0.3527,0.3526,0.3542,0,0,0.3524,0.3524,0,0,0,0,0,0,0,0,0.3661,0.3659,0.3626,0.3624,0.362,0.3592,0.3609,0.3587,0.3567,0.3587,0.3564,0.3563,0.355,0.3547,0.3542,0.3541,0.3539,0.3524,0.3524,0.3524,0.3523,0,0,0,0,0,0,0,0.3663,0.366,0.3634,0.3626,0.3622,0.3612,0.3607,0.3605,0.3574,0.3585,0.3581,0.3578,0.3548,0.3543,0.3541,0.3538,0.3524,0.3524,0.3523,0.3523,0.3549,0.355,0,0,0,0,0,0,0.3669,0.3662,0.3635,0.3633,0.3639,0.3612,0.3607,0.3602,0.3574,0.3569,0.3578,0.3576,0.3544,0.3542,0.3539,0.3557,0.3524,0.3523,0.3523,0.3548,0.3549,0.355,0,0,0,0,0,0,0.367,0.3667,0.3637,0.3646,0.3642,0.3612,0.3608,0.3602,0.3597,0.3569,0.3564,0.3579,0.3543,0.354,0.3542,0.3555,0.3523,0.3522,0.3546,0.3548,0.3549,0.3592,0,0,0,0,0,0,0.3671,0.3667,0.3673,0.3647,0.3641,0.364,0.3609,0.3602,0.3596,0.3592,0.3568,0.3563,0.3542,0.3543,0.3541,0.3554,0.3522,0.3545,0.3547,0.3549,0.3589,0.3595,0.36,0,0,0,0,0,0.3672,0.3687,0.3674,0.3671,0.3648,0.364,0.3637,0.3613,0.3597,0.3603,0.3585,0.3564,0.3554,0.3544,0.3541,0.3554,0.3544,0.3547,0.3549,0.3587,0.3594,0.3599,0,0,0,0,0,0,0.3716,0.3683,0.3668,0.3674,0.3661,0.3633,0.3639,0.3621,0.3611,0.3608,0.3578,0.3573,0.3578,0.3566,0.3555,0.3568,0.3546,0.3548,0.3576,0.3582,0.3587,0.359,0.3521,0,0,0,0,0,0.3726,0.3722,0.3694,0.3702,0.3696,0.3669,0.3665,0.3647,0.3632,0.3626,0.3608,0.3594,0.3588,0.3584,0.3577,0.3587,0.3582,0.3595,0.36,0.3604,0.3606,0.3611,0.3617,0.3557,0.3557,0.3557,0,0,0.3747,0.3729,0.3729,0.3711,0.3698,0.3695,0.3665,0.3663,0.3661,0.3626,0.3626,0.3613,0.3595,0.3601,0.3603,0.3591,0.3621,0.3607,0.3611,0.361,0.3614,0.362,0.3625,0.3559,0.3559,0.3558,0,0,0.3785,0.377,0.3776,0.3764,0.3745,0.3726,0.3728,0.3703,0.3693,0.3693,0.3666,0.3663,0.3653,0.3642,0.3634,0.3668,0.3648,0.3666,0.3693,0.3698,0.3703,0.3707,0.3719,0.3724,0.3668,0.3668,0.3669,0,0.3814,0.3808,0.3781,0.3781,0.3774,0.3742,0.3748,0.3737,0.3717,0.3713,0.37,0.3686,0.3672,0.3675,0.3683,0.3679,0.368,0.3669,0.3704,0.3708,0.3711,0.3723,0.3727,0.3671,0.3671,0.367,0.367,0,0.3845,0.3842,0.3849,0.383,0.3823,0.3826,0.38,0.3797,0.378,0.3763,0.3763,0.3745,0.3734,0.3733,0.3716,0.3734,0.3727,0.371,0.3687,0.372,0.373,0.3734,0.3674,0.3673,0.3673,0.3672,0,0,0.3909,0.3875,0.3878,0.3869,0.3845,0.3843,0.3844,0.3832,0.3831,0.3818,0.3818,0.381,0.3794,0.3786,0.3767,0.3772,0.3799,0.3753,0.3753,0.3763,0.3818,0.3832,0.3837,0.3786,0.3787,0.3787,0.382,0,0.3943,0.3943,0.3919,0.3926,0.3923,0.3892,0.3893,0.3879,0.3864,0.3859,0.3842,0.3837,0.3815,0.381,0.3813,0.3796,0.381,0.3793,0.3787,0.3787,0.3793,0.3842,0.3857,0.3888,0.3824,0.3824,0.3825,0,0.3982,0.3971,0.3978,0.3954,0.3952,0.3954,0.3941,0.3937,0.392,0.3908,0.39,0.3879,0.3879,0.3857,0.3857,0.3845,0.3841,0.3832,0.3833,0.3832,0.3808,0.3843,0.3897,0.3902,0.383,0.383,0.383,0,0.4028,0.4015,0.4018,0.4011,0.3983,0.3985,0.3974,0.3956,0.3951,0.394,0.3936,0.3925,0.392,0.3912,0.3889,0.3875,0.3891,0.3868,0.3882,0.3883,0.3887,0.3887,0.3942,0.3884,0.3884,0.3884,0.3884,0,0.4068,0.4074,0.4038,0.404,0.4045,0.4017,0.4023,0.4009,0.3994,0.3992,0.3965,0.3964,0.3933,0.3929,0.3911,0.3913,0.3911,0.3902,0.3897,0.3904,0.3906,0.3902,0.3899,0.3885,0.3885,0.3885,0.3885,0,0.4121,0.4097,0.4098,0.4072,0.4065,0.407,0.4048,0.4049,0.4031,0.403,0.4028,0.4001,0.3994,0.397,0.3958,0.3946,0.3955,0.3945,0.396,0.3957,0.3973,0.3972,0.4028,0.4034,0.3972,0.3973,0.3973,0,0.4148,0.4152,0.4126,0.4123,0.4113,0.4108,0.4102,0.4075,0.407,0.4052,0.4054,0.4046,0.4037,0.4029,0.4008,0.3999,0.3989,0.4009,0.3987,0.3995,0.399,0.399,0.399,0.4014,0.4015,0.4015,0.4016,0,0.4199,0.4187,0.418,0.4169,0.4163,0.4152,0.4141,0.414,0.4109,0.4105,0.4098,0.4092,0.4079,0.4071,0.4058,0.4047,0.4027,0.4023,0.4026,0.4034,0.4042,0.4038,0.3973,0.4022,0.4021,0.4021,0.4021,0.402,0.424,0.4242,0.4224,0.4217,0.4205,0.4195,0.4194,0.4177,0.417,0.4158,0.4142,0.4137,0.412,0.4101,0.4091,0.4087,0.4076,0.408,0.4081,0.4083,0.4086,0.4043,0.4085,0.4084,0.4084,0.4084,0.4084,0,0.429,0.4277,0.427,0.4255,0.4249,0.423,0.4216,0.4213,0.4209,0.4195,0.4187,0.418,0.4172,0.415,0.414,0.4141,0.4132,0.414,0.4139,0.4137,0.4097,0.4095,0.4147,0.4147,0.4147,0.4147,0.4147,0.4147,0.4315,0.4317,0.4303,0.4299,0.4286,0.4281,0.4275,0.4265,0.4254,0.4246,0.4239,0.4226,0.4209,0.4197,0.4189,0.4183,0.4181,0.4192,0.4183,0.4146,0.414,0.4134,0.4133,0.4192,0.4192,0.4224,0.4224,0.4224]},{"header":{"parameterUnit":"m.s-1","parameterCategory":1,"la1":30.2991,"la2":30.254,"lo1":-89.0895,"lo2":-89.0444,"dy":0.0017,"dx":0.0017,"nx":28,"ny":28,"refTime":"2024-04-18T09:00:00:Z","depth":0,"parameterNumber":3,"parameterNumberName":"V-component_of_WINDS"},"data":[0,0,0,0,0,0,0,0,0,0,0,0,0,0,0,0,0,0,0,0,0,0,0,0,0,0,0,0,0,0,0,0,0,0,0,0,0,0,0,0,0,0,0,0,0,0,0,0,0,0,0,0,0,0,0,0,0,0,0.8198,0.8199,0,0.8248,0.8249,0.8249,0.8279,0.8279,0.828,0.828,0.8329,0.833,0.8331,0,0,0,0,0,0,0,0,0,0,0,0,0,0.8128,0.8129,0.8198,0.8199,0.82,0.8248,0.8249,0.8249,0.8279,0.8279,0.828,0.828,0.8329,0.833,0.8331,0,0,0,0,0,0,0,0,0,0,0,0,0,0.8166,0.8129,0.8198,0.822,0.8223,0.8248,0.8249,0.825,0.8279,0.8279,0.828,0.828,0.8328,0.833,0.8332,0.8338,0,0,0.8337,0.8338,0,0,0,0,0,0,0,0,0.8164,0.8169,0.8216,0.8219,0.8222,0.8258,0.8242,0.8279,0.8279,0.8258,0.828,0.828,0.8305,0.8309,0.8317,0.834,0.8342,0.8337,0.8338,0.8339,0.8339,0,0,0,0,0,0,0,0.8161,0.8167,0.8218,0.8217,0.822,0.8227,0.8233,0.8249,0.8279,0.826,0.8262,0.8268,0.8306,0.8316,0.8319,0.8343,0.8337,0.8339,0.834,0.834,0.8374,0.8374,0,0,0,0,0,0,0.8155,0.8164,0.8216,0.8219,0.8193,0.8228,0.8235,0.8246,0.8279,0.8285,0.8267,0.8269,0.8313,0.8317,0.8321,0.8331,0.8339,0.8341,0.8342,0.8374,0.8374,0.8374,0,0,0,0,0,0,0.8153,0.816,0.8214,0.8193,0.82,0.8229,0.8242,0.8247,0.8256,0.8285,0.8291,0.8271,0.8313,0.8318,0.8334,0.8333,0.8341,0.8343,0.8374,0.8374,0.8374,0.835,0,0,0,0,0,0,0.8151,0.8159,0.8162,0.8192,0.8201,0.8227,0.8242,0.8248,0.8259,0.8262,0.829,0.8295,0.8314,0.8331,0.8335,0.8335,0.8344,0.8375,0.8374,0.8374,0.8351,0.8349,0.8347,0,0,0,0,0,0.8149,0.8153,0.8162,0.8168,0.8206,0.8227,0.8232,0.8253,0.8259,0.8262,0.8281,0.8294,0.8332,0.8332,0.8338,0.8338,0.8375,0.8374,0.8374,0.8352,0.835,0.8347,0,0,0,0,0,0,0.812,0.8157,0.8168,0.8182,0.8201,0.8232,0.8236,0.825,0.8267,0.8269,0.8294,0.83,0.8313,0.8327,0.8327,0.8346,0.8355,0.8356,0.8336,0.8334,0.8332,0.8329,0.8346,0,0,0,0,0,0.8116,0.8131,0.8162,0.8171,0.818,0.8206,0.8217,0.8231,0.8252,0.826,0.828,0.8299,0.8316,0.8326,0.8342,0.8353,0.836,0.8356,0.8354,0.8353,0.8353,0.836,0.8359,0.8373,0.8373,0.8373,0,0,0.8107,0.8128,0.8136,0.8166,0.8183,0.8197,0.8213,0.8227,0.8238,0.8262,0.8278,0.8294,0.8317,0.833,0.8337,0.8342,0.8351,0.8352,0.8351,0.8352,0.8359,0.8358,0.8357,0.8372,0.8372,0.8372,0,0,0.8097,0.8115,0.8125,0.8141,0.8167,0.8184,0.8187,0.8216,0.8227,0.8244,0.8262,0.8275,0.8303,0.8318,0.833,0.8327,0.834,0.8331,0.8321,0.8328,0.8327,0.8326,0.8325,0.8324,0.8331,0.8331,0.8331,0,0.8082,0.8105,0.8128,0.8142,0.8154,0.8177,0.8187,0.8202,0.8231,0.8239,0.8245,0.828,0.8297,0.8315,0.8314,0.8323,0.8326,0.8328,0.8325,0.8325,0.8324,0.8323,0.8323,0.833,0.833,0.833,0.8331,0,0.8085,0.81,0.8105,0.8133,0.8147,0.8158,0.8183,0.8194,0.8207,0.8224,0.8241,0.8262,0.8284,0.8289,0.8302,0.8308,0.8311,0.832,0.833,0.8321,0.8321,0.8321,0.8328,0.8329,0.8329,0.833,0,0,0.8058,0.81,0.8101,0.8115,0.8145,0.8157,0.8169,0.8191,0.8199,0.8219,0.823,0.8253,0.8262,0.8275,0.829,0.8296,0.8292,0.8305,0.8306,0.8302,0.83,0.8293,0.8292,0.8301,0.8301,0.8301,0.8298,0,0.8053,0.8077,0.8099,0.8115,0.813,0.8152,0.8163,0.8183,0.8199,0.8213,0.8231,0.8247,0.8258,0.8266,0.8273,0.8291,0.8292,0.8292,0.8311,0.8312,0.8305,0.8292,0.8284,0.828,0.8298,0.8298,0.8298,0,0.805,0.8069,0.8087,0.8116,0.8122,0.8132,0.8154,0.8167,0.819,0.8201,0.8216,0.8232,0.8246,0.8254,0.8274,0.8273,0.8283,0.8293,0.8293,0.8296,0.8304,0.8294,0.8279,0.8279,0.8298,0.8298,0.8298,0,0.8028,0.8059,0.8073,0.8084,0.8118,0.8124,0.8139,0.8161,0.8173,0.8192,0.82,0.822,0.823,0.8245,0.8266,0.827,0.8284,0.8294,0.8293,0.8293,0.8295,0.8294,0.8281,0.8301,0.8301,0.8301,0.8301,0,0.802,0.803,0.8064,0.8073,0.8085,0.811,0.8121,0.8137,0.8157,0.817,0.819,0.8201,0.8229,0.8243,0.8259,0.8273,0.8278,0.8287,0.8291,0.8285,0.8284,0.8291,0.8292,0.8301,0.8301,0.8301,0.8301,0,0.7998,0.8022,0.8039,0.807,0.8078,0.8086,0.8112,0.8121,0.8139,0.8154,0.8159,0.8186,0.8204,0.8227,0.8252,0.8263,0.8275,0.8282,0.8267,0.827,0.8268,0.8268,0.8259,0.826,0.8279,0.8279,0.8279,0,0.7991,0.7999,0.8032,0.8042,0.8056,0.8071,0.8084,0.8108,0.812,0.8147,0.8153,0.8172,0.8189,0.8217,0.8238,0.8257,0.8265,0.826,0.8268,0.8261,0.8264,0.8264,0.8265,0.8258,0.8258,0.8258,0.8258,0,0.7976,0.7987,0.8005,0.8026,0.804,0.8058,0.8077,0.8084,0.8112,0.8124,0.8143,0.8156,0.8182,0.8201,0.8223,0.8238,0.8252,0.8255,0.8256,0.825,0.8241,0.8246,0.8262,0.8255,0.8255,0.8256,0.8256,0.8256,0.7962,0.797,0.7994,0.8013,0.8029,0.8047,0.8057,0.8076,0.8093,0.8116,0.8129,0.8148,0.817,0.8201,0.8215,0.823,0.8235,0.8236,0.8237,0.8236,0.8235,0.8239,0.8234,0.8234,0.8234,0.8234,0.8234,0,0.7948,0.7964,0.7981,0.8007,0.8021,0.8035,0.8056,0.8067,0.8083,0.8103,0.812,0.8141,0.816,0.8183,0.8204,0.8211,0.8218,0.8215,0.8215,0.8218,0.8229,0.8226,0.8209,0.8209,0.8209,0.8209,0.8209,0.8209,0.7942,0.7957,0.7971,0.7995,0.8012,0.803,0.8042,0.8057,0.8073,0.8097,0.8113,0.8128,0.815,0.8172,0.8189,0.8196,0.8202,0.8197,0.8205,0.8215,0.8217,0.8219,0.8217,0.8198,0.8198,0.8194,0.8194,0.8194]}]]